"Pseudo-MPEC" for C2UW6E2

Created 2020 May 23 13:07:09 UT using Find_Orb

Click here for an explanation of pseudo-MPECs

 
 Astrometry: 
     C2UW6E2  C2020 05 14yDA94@dBlE6cw^dw0dPUI4.xx*NKr`q+w0?NAstrometry;0s+sJF51
     C2UW6E2  C2020 05 14i7Gredacted;T!QcJfqIwiN8EFCCVa+WKX=x)`5Pclick:6\W:HOF51
     C2UW6E2  C2020 05 14=f+o/Y-UY*x6_u1d-Nb65wA)gWa[%6yEuHTTU/49-$mFS$0:SL+BF51
     C2UW6E2  C2020 05 14IKj]fLbV%-QMa`\KNO2,B39FwSSJ^uM!!gDcDIJOvf52kca#I)6bF51
     C2UW6E2  C2020 05 16)4]^T2esg)t/M8-v\L\L8MiyQ9\A!fUq#mLiYy1M@jeM@\cGi_lYF51
     C2UW6E2  C2020 05 169wrOM;NEruKhere.$forMKQmexplanationoqtiS76K'P=:C:2r3F51
     C2UW6E2  C2020 05 169ha8:\=VkA)psPej$TwEHwO@7r4#DG2./MEL]jng`A=%ev3blXdiF51
     C2UW6E2  C2020 05 23.35160 15 59 14.72 -03 23 32.5    ~5N97 21.2 GVNEOCPG96
     C2UW6E2  C2020 05 23.35677 15 59 14.32 -03 23 06.3    ~5N97 21.9 GVNEOCPG96
     C2UW6E2  C2020 05 23.36194 15 59 13.87 -03 22 39.4    ~5N97 21.5 GVNEOCPG96
     C2UW6E2  C2020 05 23.36711 15 59 13.44 -03 22 13.2    ~5N97 21.4 GVNEOCPG96
     C2UW6E2  C2020 05 23.40113 15 59 10.59 -03 19 17.8    ~5NAM 21.0 GVNEOCPV06
     C2UW6E2  C2020 05 23.40416 15 59 10.33 -03 19 02.4    ~5NAM 21.2 GVNEOCPV06
     C2UW6E2  C2020 05 23.40718 15 59 10.09 -03 18 46.7    ~5NAM 21.1 GVNEOCPV06
     C2UW6E2  C2020 05 23.41020 15 59 09.84 -03 18 31.2    ~5NAM 21.2 GVNEOCPV06

Station data:
(F51) Pan-STARRS 1, Haleakala  (N20.707235 W156.255910)  US/Hawaii.
   Observers N. Primak, A. Schultz, S. Watters, J. Thiel, T. Goggia. Measurer
   PS1 Science Consortium. 1.8-m Ritchey-Chrétien + CCD.
(G96) Mt. Lemmon Survey  (N32.442754 W110.788720)  US/Arizona.  Observers T.
   A. Pruyne, B. M. Africano, E. J. Christensen, G. A. Farneth, D. C. Fuls,
   A. R. Gibbs, A. D. Grauer, H. Gröller, J. A. Johnson, R. A. Kowalski, S.
   M. Larson, G. J. Leonard, D. Rankin, R. L. Seaman, F. C. Shelly. 1.5-m
   reflector + 10K CCD.
(V06) Catalina Sky Survey-Kuiper  (N32.416847 W110.732550)  US/Arizona.
   Observers T. A. Pruyne, B. M. Africano, E. J. Christensen, G. A. Farneth,
   D. C. Fuls, A. R. Gibbs, A. D. Grauer, H. Gröller, J. A. Johnson, R. A.
   Kowalski, S. M. Larson, G. J. Leonard, D. Rankin, R. L. Seaman, F. C.
   Shelly. 1.55-m reflector + CCD.

Orbital elements:  C2UW6E2
   Perihelion 2020 Jul 30.409001 +/- 0.0936 TT =  9:48:57 (JD 2459060.909001)
Epoch 2020 May 23.0 TT = JDT 2458992.5   Earth MOID: 0.0300   Ma: 0.0353
M 336.59630628 +/- 0.33             (J2000 ecliptic)          AutoNEOCP
n   0.34211424 +/- 0.0045           Peri.  104.38054 +/- 0.046
a   2.02467479 +/- 0.0178           Node   227.07160 +/- 0.031
e   0.6230061 +/- 0.00371           Incl.   11.96345 +/- 0.07
P   2.88                   H 23.4   G  0.15   U  9.1  
q 0.76328999 +/- 0.000845    Q 3.28605959 +/- 0.0371
From 15 observations 2020 May 14-23; mean residual 0".18
Residuals in arcseconds: 
200514 F51  .08+  .05-    200516 F51  .14-  .05-    200523 G96  .21+  .30-    
200514 F51  .04+  .06-    200516 F51  .00   .28+    200523 V06  .11-  .25+    
200514 F51  .03-  .25+    200523 G96  .09-  .05-    200523 V06  .26-  .06+    
200514 F51  .00   .14-    200523 G96  .42+  .36-    200523 V06  .14-  .21+    
200516 F51  .04+  .21-    200523 G96  .17+  .03+    200523 V06  .17-  .16+    

Ephemerides (geocentric):
Date (UTC) HH   RA              Dec         delta   r     elong  mag " sig PA
---- -- -- --  -------------   -----------  ------ ------ -----  --- ---- ---
2020 05 23 13  15 59 01.817   -03 06 50.18  .22570 1.2297 162.4 21.5 .156  28
2020 05 23 14  15 58 58.822   -03 03 13.70  .22535 1.2293 162.4 21.5 .152  28
2020 05 23 15  15 58 55.817   -02 59 36.61  .22500 1.2289 162.3 21.5 .147  28
2020 05 23 16  15 58 52.804   -02 55 58.90  .22465 1.2285 162.2 21.5 .142  27
2020 05 23 17  15 58 49.781   -02 52 20.57  .22430 1.2281 162.1 21.5 .137  27
2020 05 23 18  15 58 46.750   -02 48 41.63  .22395 1.2277 162.1 21.5 .132  26
2020 05 23 19  15 58 43.710   -02 45 02.06  .22360 1.2273 162.0 21.4 .127  26
2020 05 23 20  15 58 40.662   -02 41 21.87  .22325 1.2269 161.9 21.4 .122  26
2020 05 23 21  15 58 37.604   -02 37 41.05  .22290 1.2265 161.9 21.4 .117  25
2020 05 23 22  15 58 34.537   -02 33 59.61  .22256 1.2261 161.8 21.4 .112  25
2020 05 23 23  15 58 31.461   -02 30 17.53  .22221 1.2257 161.7 21.4 .106  24
2020 05 24 00  15 58 28.376   -02 26 34.83  .22186 1.2253 161.6 21.4 .101  23
2020 05 24 01  15 58 25.283   -02 22 51.49  .22152 1.2249 161.6 21.4 .096  23
2020 05 24 02  15 58 22.180   -02 19 07.52  .22117 1.2245 161.5 21.4 .090  22
2020 05 24 03  15 58 19.068   -02 15 22.91  .22082 1.2241 161.4 21.4 .085  21
2020 05 24 04  15 58 15.947   -02 11 37.67  .22048 1.2237 161.3 21.4 .079  20
2020 05 24 05  15 58 12.817   -02 07 51.78  .22013 1.2233 161.3 21.4 .073  19
2020 05 24 06  15 58 09.677   -02 04 05.25  .21979 1.2229 161.2 21.4 .067  18
2020 05 24 07  15 58 06.529   -02 00 18.07  .21945 1.2225 161.1 21.4 .062  17
2020 05 24 08  15 58 03.371   -01 56 30.25  .21910 1.2221 161.0 21.4 .056  15
2020 05 24 09  15 58 00.204   -01 52 41.78  .21876 1.2217 161.0 21.4 .050  13
2020 05 24 10  15 57 57.028   -01 48 52.65  .21842 1.2213 160.9 21.4 .044  11
2020 05 24 11  15 57 53.843   -01 45 02.88  .21807 1.2209 160.8 21.4 .038   8
2020 05 24 12  15 57 50.648   -01 41 12.45  .21773 1.2205 160.7 21.4 .032   3
2020 05 24 13  15 57 47.444   -01 37 21.36  .21739 1.2201 160.7 21.4 .027 177
2020 05 24 14  15 57 44.231   -01 33 29.62  .21705 1.2197 160.6 21.4 .021 168
2020 05 24 15  15 57 41.008   -01 29 37.21  .21671 1.2193 160.5 21.4 .017 153
2020 05 24 16  15 57 37.776   -01 25 44.14  .21637 1.2189 160.4 21.4 .014 130
2020 05 24 17  15 57 34.535   -01 21 50.40  .21603 1.2185 160.3 21.4 .015 103
2020 05 24 18  15 57 31.284   -01 17 56.00  .21569 1.2181 160.3 21.4 .018  81
2020 05 24 19  15 57 28.023   -01 14 00.93  .21535 1.2177 160.2 21.4 .022  66
2020 05 24 20  15 57 24.753   -01 10 05.19  .21501 1.2173 160.1 21.4 .028  57
2020 05 24 21  15 57 21.474   -01 06 08.77  .21467 1.2169 160.0 21.4 .035  51
2020 05 24 22  15 57 18.184   -01 02 11.68  .21434 1.2165 160.0 21.4 .041  47
2020 05 24 23  15 57 14.886   -00 58 13.91  .21400 1.2161 159.9 21.4 .048  44
2020 05 25 00  15 57 11.578   -00 54 15.47  .21366 1.2157 159.8 21.4 .055  41
2020 05 25 01  15 57 08.260   -00 50 16.34  .21333 1.2153 159.7 21.4 .063  40
2020 05 25 02  15 57 04.932   -00 46 16.53  .21299 1.2149 159.6 21.4 .070  38
2020 05 25 03  15 57 01.595   -00 42 16.03  .21265 1.2145 159.5 21.4 .077  37
2020 05 25 04  15 56 58.248   -00 38 14.84  .21232 1.2141 159.5 21.4 .085  36
2020 05 25 05  15 56 54.891   -00 34 12.97  .21199 1.2137 159.4 21.4 .093  35
2020 05 25 06  15 56 51.525   -00 30 10.40  .21165 1.2133 159.3 21.4 .101  34
2020 05 25 07  15 56 48.148   -00 26 07.14  .21132 1.2129 159.2 21.4 .109  33
2020 05 25 08  15 56 44.762   -00 22 03.18  .21098 1.2125 159.1 21.4 .117  32
2020 05 25 09  15 56 41.366   -00 17 58.53  .21065 1.2121 159.1 21.4 .125  32
2020 05 25 10  15 56 37.960   -00 13 53.17  .21032 1.2117 159.0 21.4 .133  31
2020 05 25 11  15 56 34.544   -00 09 47.12  .20999 1.2113 158.9 21.4 .141  30
2020 05 25 12  15 56 31.119   -00 05 40.35  .20966 1.2109 158.8 21.4 .150  30